Weather History for Mandan, ND

Change the Weather History Date:

Friday, December 7, 2012

  Actual Average (KBIS) Record (KBIS)
Temperature  
Mean Temperature 22 °F 19 °F  
Max Temperature 26 °F 29 °F 57 °F (1918)
Min Temperature 17 °F 9 °F -28 °F (1972)
Degree Days  
Heating Degree Days 44 46  
Month to date heating degree days 316  
Since 1 July heating degree days 2302  
Cooling Degree Days 0 0  
Month to date cooling degree days 0  
Year to date cooling degree days 520  
Moisture  
Dew Point 20 °F    
Average Humidity 98    
Maximum Humidity 100    
Minimum Humidity 74    
Precipitation  
Precipitation 0.00 in 0.01 in 0.40 in (1963)
Month to date precipitation 0.11  
Year to date precipitation 17.47  
Snow  
Snow 0.00 in 0.30 in 4.80 in (1977)
Month to date snowfall 2.0  
Since 1 July snowfall 13.2  
Snow Depth -    
Sea Level Pressure  
Sea Level Pressure 29.95 in    
Wind  
Wind Speed 8 mph (ENE)    
Max Wind Speed 12 mph    
Max Gust Speed -    
Visibility 8 miles    
Events Snow    
T = Trace of Precipitation, MM = Missing Value Source: NWS Daily Summary

Daily Weather History Graph

Daily Weather History Graph

Search for Another Location

Airport:

Trip Planner

Search our weather history database for the weather conditions in past years. The results will help you decide how hot, cold, wet, or windy it might be!

Date:

Astronomy

Dec. 07, 2012 Rise Set
Actual Time 8:15 AM CST 4:55 PM CST
Civil Twilight 7:40 AM CST 5:30 PM CST
Nautical Twilight 7:01 AM CST 6:08 PM CST
Astronomical Twilight 6:25 AM CST 6:45 PM CST
Moon 1:15 AM CST (12/7) 1:12 PM CST (12/7)
Length of Visible Light 9h 50m
Length of Day
8h 40m
Last Quarter, 38% of the Moon is Illuminated
Dec 7
Last Quarter
Dec 13
New
Dec 19
First Quarter
Dec 28
Full
Jan 4
Last Quarter

Hourly Weather History & Observations

Time (CST) Temp. Windchill Dew Point Humidity Pressure Visibility Wind Dir Wind Speed Gust Speed Precip Events Conditions
12:15 AM 26.6 °F 21.2 °F 19.4 °F 74% 29.93 in 10.0 mi ENE 4.6 mph - N/A   Overcast
12:35 AM 26.6 °F 20.0 °F 21.2 °F 80% 29.93 in 10.0 mi ENE 5.8 mph - N/A   Overcast
12:55 AM 24.8 °F 20.5 °F 21.2 °F 86% 29.94 in 10.0 mi NE 3.5 mph - N/A   Overcast
1:15 AM 26.6 °F 21.2 °F 23.0 °F 86% 29.94 in 10.0 mi ENE 4.6 mph - N/A   Overcast
1:35 AM 24.8 °F 19.1 °F 21.2 °F 86% 29.93 in 10.0 mi NE 4.6 mph - N/A   Overcast
1:55 AM 24.8 °F 17.9 °F 23.0 °F 93% 29.93 in 10.0 mi NE 5.8 mph - N/A   Overcast
2:15 AM 24.8 °F 16.1 °F 23.0 °F 93% 29.92 in 10.0 mi NE 8.1 mph - N/A   Overcast
2:35 AM 23.0 °F 13.9 °F 23.0 °F 100% 29.92 in 10.0 mi ENE 8.1 mph - N/A   Overcast
2:55 AM 23.0 °F 15.8 °F 23.0 °F 100% 29.93 in 10.0 mi East 5.8 mph - N/A   Scattered Clouds
3:15 AM 24.8 °F 16.1 °F 23.0 °F 93% 29.92 in 10.0 mi East 8.1 mph - N/A   Clear
3:35 AM 23.0 °F 14.7 °F 23.0 °F 100% 29.92 in 10.0 mi ENE 6.9 mph - N/A   Clear
3:55 AM 23.0 °F 12.4 °F 23.0 °F 100% 29.91 in 10.0 mi ENE 10.4 mph - N/A   Clear
4:15 AM 23.0 °F 14.7 °F 23.0 °F 100% 29.92 in 10.0 mi NE 6.9 mph - N/A   Scattered Clouds
4:35 AM 23.0 °F 13.9 °F 23.0 °F 100% 29.91 in 10.0 mi NE 8.1 mph - N/A   Overcast
4:55 AM 23.0 °F 13.1 °F 23.0 °F 100% 29.92 in 10.0 mi ENE 9.2 mph - N/A   Overcast
5:15 AM 23.0 °F 11.7 °F 23.0 °F 100% 29.92 in 10.0 mi ENE 11.5 mph - N/A   Mostly Cloudy
5:35 AM 21.2 °F 10.1 °F 21.2 °F 100% 29.93 in 10.0 mi ENE 10.4 mph - N/A   Mostly Cloudy
5:55 AM 21.2 °F 10.1 °F 21.2 °F 100% 29.93 in 10.0 mi ENE 10.4 mph - N/A   Overcast
6:15 AM 19.4 °F 9.5 °F 19.4 °F 100% 29.94 in 10.0 mi ENE 8.1 mph - N/A   Overcast
6:35 AM 19.4 °F 7.9 °F 19.4 °F 100% 29.94 in 10.0 mi NE 10.4 mph - N/A   Mostly Cloudy
6:55 AM 19.4 °F 7.9 °F 19.4 °F 100% 29.95 in 10.0 mi NE 10.4 mph - N/A   Scattered Clouds
7:15 AM 19.4 °F 7.9 °F 19.4 °F 100% 29.95 in 10.0 mi NE 10.4 mph - N/A   Mostly Cloudy
7:35 AM 19.4 °F 8.6 °F 19.4 °F 100% 29.95 in 10.0 mi NE 9.2 mph - N/A   Overcast
7:55 AM 19.4 °F 7.9 °F 19.4 °F 100% 29.95 in 10.0 mi NE 10.4 mph - N/A   Overcast
8:15 AM 17.6 °F 5.7 °F 17.6 °F 100% 29.95 in 10.0 mi NE 10.4 mph - N/A   Overcast
8:35 AM 17.6 °F 6.4 °F 17.6 °F 100% 29.95 in 10.0 mi ENE 9.2 mph - N/A   Overcast
8:55 AM 17.6 °F 7.3 °F 17.6 °F 100% 29.96 in 10.0 mi ENE 8.1 mph - N/A   Overcast
9:15 AM 17.6 °F 5.7 °F 17.6 °F 100% 29.97 in 10.0 mi NE 10.4 mph - N/A   Overcast
9:35 AM 17.6 °F 8.2 °F 17.6 °F 100% 29.98 in 10.0 mi NE 6.9 mph - N/A   Overcast
9:55 AM 17.6 °F 6.4 °F 17.6 °F 100% 29.98 in 10.0 mi ENE 9.2 mph - N/A   Overcast
10:15 AM 19.4 °F 9.5 °F 19.4 °F 100% 29.98 in 10.0 mi NE 8.1 mph - N/A   Overcast
10:35 AM 19.4 °F 9.5 °F 19.4 °F 100% 29.98 in 10.0 mi NE 8.1 mph - N/A   Mostly Cloudy
10:55 AM 19.4 °F 8.6 °F 19.4 °F 100% 29.99 in 10.0 mi NE 9.2 mph - N/A   Overcast
11:15 AM 19.4 °F 8.6 °F 19.4 °F 100% 29.98 in 9.0 mi NE 9.2 mph - N/A   Overcast
11:35 AM 19.4 °F 8.6 °F 19.4 °F 100% 29.98 in 8.0 mi NE 9.2 mph - N/A   Overcast
11:55 AM 19.4 °F 8.6 °F 19.4 °F 100% 29.98 in 7.0 mi NE 9.2 mph - N/A   Overcast
12:15 PM 19.4 °F 7.2 °F 19.4 °F 100% 29.98 in 5.0 mi NE 11.5 mph - N/A   Overcast
12:35 PM 19.4 °F 9.5 °F 19.4 °F 100% 29.97 in 5.0 mi NE 8.1 mph - N/A   Overcast
12:55 PM 21.2 °F 11.7 °F 21.2 °F 100% 29.97 in 3.0 mi NE 8.1 mph - N/A   Overcast
1:15 PM 21.2 °F 11.7 °F 21.2 °F 100% 29.97 in 3.0 mi ENE 8.1 mph - N/A   Overcast
1:35 PM 21.2 °F 10.9 °F 21.2 °F 100% 29.97 in 2.5 mi ENE 9.2 mph - N/A   Overcast
1:55 PM 21.2 °F 10.9 °F 21.2 °F 100% 29.97 in 1.8 mi ENE 9.2 mph - N/A   Overcast
2:15 PM 19.4 °F 8.6 °F 19.4 °F 100% 29.97 in 1.0 mi ENE 9.2 mph - N/A   Overcast
2:35 PM 19.4 °F 8.6 °F 19.4 °F 100% 29.96 in 1.0 mi NE 9.2 mph - N/A   Overcast
2:55 PM 19.4 °F 7.2 °F 19.4 °F 100% 29.96 in 1.5 mi ENE 11.5 mph - N/A   Overcast
3:15 PM 19.4 °F 7.2 °F 19.4 °F 100% 29.96 in 1.0 mi ENE 11.5 mph - N/A   Overcast
3:35 PM 19.4 °F 8.6 °F 19.4 °F 100% 29.96 in 1.2 mi ENE 9.2 mph - N/A   Overcast
3:55 PM 19.4 °F 7.9 °F 19.4 °F 100% 29.96 in 2.5 mi ENE 10.4 mph - N/A   Overcast
4:15 PM 19.4 °F 8.6 °F 19.4 °F 100% 29.96 in 3.0 mi East 9.2 mph - N/A   Overcast
4:35 PM 19.4 °F 8.6 °F 19.4 °F 100% 29.96 in 4.0 mi East 9.2 mph - N/A   Overcast
4:55 PM 19.4 °F 10.4 °F 19.4 °F 100% 29.96 in 3.0 mi East 6.9 mph - N/A   Overcast
5:15 PM 19.4 °F 8.6 °F 19.4 °F 100% 29.97 in 3.0 mi East 9.2 mph - N/A   Overcast
5:35 PM 19.4 °F 8.6 °F 19.4 °F 100% 29.96 in 4.0 mi East 9.2 mph - N/A   Overcast
5:55 PM 19.4 °F 10.4 °F 19.4 °F 100% 29.97 in 6.0 mi East 6.9 mph - N/A   Overcast
6:15 PM 19.4 °F 9.5 °F 19.4 °F 100% 29.97 in 6.0 mi East 8.1 mph - N/A   Overcast
6:35 PM 19.4 °F 7.9 °F 19.4 °F 100% 29.97 in 9.0 mi East 10.4 mph - N/A   Overcast
6:55 PM 19.4 °F 7.9 °F 19.4 °F 100% 29.96 in 7.0 mi East 10.4 mph - N/A   Overcast
7:15 PM 19.4 °F 8.6 °F 19.4 °F 100% 29.96 in 10.0 mi East 9.2 mph - N/A   Overcast
7:35 PM 19.4 °F 9.5 °F 19.4 °F 100% 29.96 in 10.0 mi East 8.1 mph - N/A   Overcast
7:55 PM 19.4 °F 8.6 °F 19.4 °F 100% 29.95 in 10.0 mi East 9.2 mph - N/A   Overcast
8:15 PM 19.4 °F 8.6 °F 19.4 °F 100% 29.95 in 10.0 mi East 9.2 mph - N/A   Overcast
8:35 PM 19.4 °F 7.2 °F 19.4 °F 100% 29.94 in 10.0 mi East 11.5 mph - N/A   Overcast
8:55 PM 19.4 °F 8.6 °F 19.4 °F 100% 29.93 in 10.0 mi East 9.2 mph - N/A   Overcast
9:15 PM 19.4 °F 7.2 °F 19.4 °F 100% 29.92 in 10.0 mi ESE 11.5 mph - N/A   Overcast
9:35 PM 19.4 °F 8.6 °F 19.4 °F 100% 29.92 in 9.0 mi ESE 9.2 mph - N/A   Overcast
9:55 PM 19.4 °F 8.6 °F 19.4 °F 100% 29.92 in 9.0 mi ESE 9.2 mph - N/A   Overcast
10:15 PM 19.4 °F 7.2 °F 19.4 °F 100% 29.90 in 8.0 mi ESE 11.5 mph - N/A   Overcast
10:35 PM 19.4 °F 7.2 °F 19.4 °F 100% 29.90 in 7.0 mi ESE 11.5 mph - N/A   Overcast
10:55 PM 19.4 °F 8.6 °F 19.4 °F 100% 29.89 in 8.0 mi ESE 9.2 mph - N/A   Overcast
11:15 PM 21.2 °F 10.1 °F 21.2 °F 100% 29.89 in 7.0 mi ESE 10.4 mph - N/A   Overcast
11:35 PM 21.2 °F 10.1 °F 21.2 °F 100% 29.88 in 5.0 mi ESE 10.4 mph - N/A Snow Light Snow
11:55 PM 21.2 °F 10.1 °F 21.2 °F 100% 29.87 in 5.0 mi ESE 10.4 mph - N/A   Overcast